Arctic Village, AK

5:16 AM AKST on February 12, 2016 (GMT -0900)
Arctic Village

Weather History for PARC - October, 2012

Change the Weather History Date:

Sunday, October 7, 2012

  Actual Average Record
Temperature  
Mean Temperature 26 °F -  
Max Temperature 32 °F 28 °F 37 °F (1988)
Min Temperature 19 °F 11 °F -9 °F (1971)
Degree Days  
Heating Degree Days 40    
Moisture  
Dew Point 22 °F    
Average Humidity 87    
Maximum Humidity 100    
Minimum Humidity 68    
Precipitation  
Precipitation 0.00 in - - ()
Sea Level Pressure  
Sea Level Pressure 30.09 in    
Wind  
Wind Speed 7 mph (NNE)    
Max Wind Speed 16 mph    
Max Gust Speed -    
Visibility 10 miles    
Events      
Averages and records for this station are not official NWS values.
T = Trace of Precipitation, MM = Missing Value Source: NWS Daily Summary

Daily Weather History Graph

Daily Weather History Graph

Search for Another Location

Airport or City:

Trip Planner

Search our weather history database for the weather conditions in past years. The results will help you decide how hot, cold, wet, or windy it might be!

Date:

Astronomy

Oct. 07, 2012 Rise Set
Actual Time 8:19 AM AKDT 6:38 PM AKDT
Civil Twilight 7:23 AM AKDT 7:34 PM AKDT
Nautical Twilight 6:18 AM AKDT 8:39 PM AKDT
Astronomical Twilight 5:07 AM AKDT 9:48 PM AKDT
Moon 9:43 PM AKDT (10/7) 5:24 PM AKDT (10/7)
Length of Visible Light 12h 10m
Length of Day
10h 18m
Waning Gibbous, 55% of the Moon is Illuminated
Oct 7
Waning Gibbous
Oct 7
Last Quarter
Oct 15
New
Oct 21
First Quarter
Oct 29
Full

Hourly Weather History & Observations

Time (AKDT) Temp. Windchill Dew Point Humidity Pressure Visibility Wind Dir Wind Speed Gust Speed Precip Events Conditions
12:16 AM 32.0 °F 21.6 °F 28.4 °F 87% 30.03 in 10.0 mi West 15.0 mph - N/A   Scattered Clouds
12:36 AM 32.0 °F 21.2 °F 28.4 °F 87% 30.03 in 10.0 mi WSW 16.1 mph - N/A   Scattered Clouds
12:56 AM 32.0 °F 22.1 °F 28.4 °F 87% 30.03 in 10.0 mi WSW 13.8 mph - N/A   Mostly Cloudy
1:16 AM 30.2 °F 22.6 °F 28.4 °F 93% 30.04 in 10.0 mi West 8.1 mph - N/A   Overcast
1:36 AM 32.0 °F 24.8 °F 28.4 °F 87% 30.04 in 10.0 mi West 8.1 mph - N/A   Overcast
1:56 AM 30.2 °F 20.8 °F 26.6 °F 86% 30.04 in 10.0 mi West 11.5 mph - N/A   Scattered Clouds
2:16 AM 30.2 °F 18.9 °F 26.6 °F 86% 30.04 in 10.0 mi WSW 16.1 mph - N/A   Clear
2:36 AM 30.2 °F 22.6 °F 26.6 °F 86% 30.05 in 10.0 mi West 8.1 mph - N/A   Clear
2:56 AM 30.2 °F 23.4 °F 26.6 °F 86% 30.05 in 10.0 mi WSW 6.9 mph - N/A   Clear
3:16 AM 30.2 °F 22.6 °F 26.6 °F 86% 30.05 in 10.0 mi West 8.1 mph - N/A   Clear
3:36 AM 30.2 °F 21.3 °F 26.6 °F 86% 30.05 in 10.0 mi WSW 10.4 mph - N/A   Clear
3:56 AM 30.2 °F 23.4 °F 26.6 °F 86% 30.06 in 10.0 mi West 6.9 mph - N/A   Clear
4:16 AM 28.4 °F 20.4 °F 26.6 °F 93% 30.06 in 10.0 mi West 8.1 mph - N/A   Clear
4:36 AM 30.2 °F 24.3 °F 26.6 °F 86% 30.06 in 10.0 mi WNW 5.8 mph - N/A   Clear
4:56 AM 30.2 °F 20.8 °F 26.6 °F 86% 30.06 in 10.0 mi West 11.5 mph - N/A   Clear
5:16 AM 28.4 °F - 24.8 °F 86% 30.06 in 10.0 mi Calm Calm - N/A   Clear
5:36 AM 28.4 °F 21.2 °F 23.0 °F 80% 30.07 in 10.0 mi ENE 6.9 mph - N/A   Clear
5:56 AM 28.4 °F 22.2 °F 26.6 °F 93% 30.07 in 10.0 mi WSW 5.8 mph - N/A   Clear
6:16 AM 21.2 °F 12.6 °F 12.2 °F 68% 30.08 in 10.0 mi North 6.9 mph - N/A   Clear
6:36 AM 19.4 °F 14.3 °F 17.6 °F 93% 30.08 in 4.0 mi NW 3.5 mph - N/A   Clear
6:56 AM 19.4 °F 12.8 °F 17.6 °F 93% 30.08 in 10.0 mi NE 4.6 mph - N/A   Clear
7:16 AM 19.4 °F 12.8 °F 17.6 °F 93% 30.09 in 10.0 mi North 4.6 mph - N/A   Clear
7:36 AM 19.4 °F 11.5 °F 17.6 °F 93% 30.10 in 10.0 mi North 5.8 mph - N/A   Clear
7:56 AM 19.4 °F 11.5 °F 17.6 °F 93% 30.10 in 10.0 mi NE 5.8 mph - N/A   Clear
8:16 AM 19.4 °F 14.3 °F 19.4 °F 100% 30.10 in 10.0 mi East 3.5 mph - N/A   Clear
8:36 AM 19.4 °F - 19.4 °F 100% 30.10 in 10.0 mi Calm Calm - N/A   Clear
8:56 AM 19.4 °F 14.3 °F 17.6 °F 93% 30.10 in 10.0 mi North 3.5 mph - N/A   Clear
9:36 AM 19.4 °F 12.8 °F 17.6 °F 93% 30.11 in 10.0 mi North 4.6 mph - N/A   Clear
9:56 AM 21.2 °F - 21.2 °F 100% 30.11 in 10.0 mi Calm Calm - N/A   Clear
10:16 AM 23.0 °F 17.0 °F 21.2 °F 93% 30.11 in 10.0 mi ENE 4.6 mph - N/A   Clear
10:36 AM 23.0 °F 17.0 °F 21.2 °F 93% 30.12 in 10.0 mi SE 4.6 mph - N/A   Clear
10:56 AM 24.8 °F - 21.2 °F 86% 30.12 in 10.0 mi Calm Calm - N/A   Clear
11:16 AM 26.6 °F - 21.2 °F 80% 30.12 in 10.0 mi Calm Calm - N/A   Clear
11:36 AM 26.6 °F 22.6 °F 21.2 °F 80% 30.12 in 10.0 mi NE 3.5 mph - N/A   Clear
11:56 AM 26.6 °F 22.6 °F 21.2 °F 80% 30.12 in 10.0 mi NE 3.5 mph - N/A   Clear
12:16 PM 26.6 °F 22.6 °F 21.2 °F 80% 30.12 in 10.0 mi NNE 3.5 mph - N/A   Clear
12:36 PM 28.4 °F 22.2 °F 23.0 °F 80% 30.12 in 10.0 mi ENE 5.8 mph - N/A   Clear
12:56 PM 28.4 °F - 21.2 °F 74% 30.12 in 10.0 mi Calm Calm - N/A   Clear
1:16 PM 28.4 °F - 23.0 °F 80% 30.12 in 10.0 mi Calm Calm - N/A   Clear
1:36 PM 28.4 °F 23.3 °F 23.0 °F 80% 30.12 in 10.0 mi ENE 4.6 mph - N/A   Clear
1:56 PM 28.4 °F 24.6 °F 24.8 °F 86% 30.12 in 10.0 mi NE 3.5 mph - N/A   Clear
2:16 PM 28.4 °F 24.6 °F 24.8 °F 86% 30.12 in 10.0 mi NE 3.5 mph - N/A   Clear
2:36 PM 30.2 °F 25.4 °F 24.8 °F 80% 30.12 in 10.0 mi NE 4.6 mph - N/A   Clear
2:56 PM 28.4 °F 21.2 °F 24.8 °F 86% 30.12 in 10.0 mi NE 6.9 mph - N/A   Clear
3:16 PM 28.4 °F 21.2 °F 24.8 °F 86% 30.11 in 10.0 mi NE 6.9 mph - N/A   Clear
3:36 PM 28.4 °F 22.2 °F 24.8 °F 86% 30.11 in 10.0 mi NE 5.8 mph - N/A   Clear
3:56 PM 28.4 °F 24.6 °F 24.8 °F 86% 30.11 in 10.0 mi NNE 3.5 mph - N/A   Clear
4:16 PM 28.4 °F 24.6 °F 24.8 °F 86% 30.10 in 10.0 mi NE 3.5 mph - N/A   Clear
4:36 PM 28.4 °F 24.6 °F 24.8 °F 86% 30.10 in 10.0 mi NE 3.5 mph - N/A   Clear
4:56 PM 28.4 °F 24.6 °F 23.0 °F 80% 30.10 in 10.0 mi NNE 3.5 mph - N/A   Clear
5:16 PM 28.4 °F 23.3 °F 24.8 °F 86% 30.10 in 10.0 mi NNE 4.6 mph - N/A   Clear
5:36 PM 28.4 °F 24.6 °F 24.8 °F 86% 30.09 in 10.0 mi NNE 3.5 mph - N/A   Clear
5:56 PM 26.6 °F 21.2 °F 23.0 °F 86% 30.09 in 10.0 mi NE 4.6 mph - N/A   Clear
6:16 PM 26.6 °F 21.2 °F 23.0 °F 86% 30.10 in 10.0 mi NE 4.6 mph - N/A   Mostly Cloudy
6:36 PM 26.6 °F 21.2 °F 24.8 °F 93% 30.09 in 10.0 mi East 4.6 mph - N/A   Overcast
6:56 PM 26.6 °F 21.2 °F 23.0 °F 86% 30.09 in 10.0 mi East 4.6 mph - N/A   Mostly Cloudy
7:16 PM 26.6 °F - 23.0 °F 86% 30.09 in 10.0 mi Calm Calm - N/A   Partly Cloudy
7:36 PM 24.8 °F - 21.2 °F 86% 30.09 in 10.0 mi Calm Calm - N/A   Clear
7:56 PM 24.8 °F 17.9 °F 21.2 °F 86% 30.10 in 10.0 mi East 5.8 mph - N/A   Clear
8:16 PM 24.8 °F - 21.2 °F 86% 30.09 in 10.0 mi Calm Calm - N/A   Clear
8:36 PM 24.8 °F 20.5 °F 19.4 °F 80% 30.10 in 10.0 mi East 3.5 mph - N/A   Clear
8:56 PM 23.0 °F 18.4 °F 19.4 °F 86% 30.09 in 10.0 mi East 3.5 mph - N/A   Clear
9:16 PM 23.0 °F 15.8 °F 17.6 °F 80% 30.09 in 10.0 mi ENE 5.8 mph - N/A   Clear
9:36 PM 21.2 °F 13.6 °F 17.6 °F 86% 30.09 in 10.0 mi ENE 5.8 mph - N/A   Clear
9:56 PM 21.2 °F 14.9 °F 17.6 °F 86% 30.10 in 10.0 mi ENE 4.6 mph - N/A   Clear
10:16 PM 19.4 °F - 17.6 °F 93% 30.09 in 10.0 mi Calm Calm - N/A   Clear
10:36 PM 21.2 °F - 17.6 °F 86% 30.10 in 10.0 mi Calm Calm - N/A   Clear
10:56 PM 19.4 °F - 17.6 °F 93% 30.10 in 10.0 mi Calm Calm - N/A   Clear
11:16 PM 19.4 °F 14.3 °F 17.6 °F 93% 30.10 in 10.0 mi ENE 3.5 mph - N/A   Clear
11:36 PM 19.4 °F - 17.6 °F 93% 30.10 in 10.0 mi Calm Calm - N/A   Clear
11:56 PM 19.4 °F - 15.8 °F 86% 30.10 in 10.0 mi Calm Calm - N/A   Clear